When you browse on this site, cookies collect data to enhance your experience and personalize the content and advertising you see.
Visit our Privacy Policy to learn more. By continuing to use the site, you agree to this use of cookies and data.
  • In Belgien
  • Länderverzeichnis
  • Für 7 Tage
  • Wassertemperatur
  • Satellitenkarten
  • Wetterkarte
  • Widgets
  • user-avatar
    Anmelden

    Stündliche Wetter Karlsruhe

    Heute, 24 Juli, Mittwoch

    Zeit Temperatur Niederschläge Wind Luftdruck Luftfeuchtigkeit
    00:00 +25°C° 0 mm 2 m/S 753 mmHg 73%
    01:00 +24°C° 0 mm 2 m/S 752 mmHg 75%
    02:00 +23°C° 0 mm 2 m/S 752 mmHg 76%
    03:00 +23°C° 0 mm 2 m/S 752 mmHg 77%
    04:00 +23°C° 0 mm 1 m/S 752 mmHg 78%
    05:00 +24°C° 0 mm 1 m/S 752 mmHg 76%
    06:00 +24°C° 0 mm 1 m/S 752 mmHg 73%
    07:00 +25°C° 0 mm 1 m/S 752 mmHg 70%
    08:00 +28°C° 0 mm 1 m/S 752 mmHg 63%
    09:00 +30°C° 0 mm 1 m/S 752 mmHg 57%
    10:00 +32°C° 0 mm 1 m/S 752 mmHg 50%
    11:00 +33°C° 0 mm 1 m/S 752 mmHg 46%
    12:00 +35°C° 0 mm 1 m/S 752 mmHg 42%
    13:00 +36°C° 0 mm 1 m/S 751 mmHg 38%
    14:00 +37°C° 0 mm 1 m/S 751 mmHg 36%
    15:00 +37°C° 0 mm 1 m/S 751 mmHg 35%
    16:00 +37°C° 0 mm 1 m/S 751 mmHg 34%
    17:00 +35°C° 0 mm 1 m/S 751 mmHg 40%
    18:00 +34°C° 0 mm 1 m/S 751 mmHg 46%
    19:00 +33°C° 0 mm 1 m/S 750 mmHg 52%
    20:00 +31°C° 0 mm 1 m/S 751 mmHg 56%
    21:00 +29°C° 0 mm 1 m/S 751 mmHg 60%
    22:00 +27°C° 0 mm 1 m/S 752 mmHg 64%
    23:00 +27°C° 0 mm 1 m/S 752 mmHg 66%

    Morgen, 25 Juli, Donnerstag

    Zeit Temperatur Niederschläge Wind Luftdruck Luftfeuchtigkeit
    00:00 +26°C° 0 mm 1 m/S 752 mmHg 68%
    01:00 +26°C° 0 mm 1 m/S 751 mmHg 70%
    02:00 +25°C° 0 mm 1 m/S 752 mmHg 71%
    03:00 +25°C° 0 mm 1 m/S 752 mmHg 73%
    04:00 +25°C° 0 mm 1 m/S 752 mmHg 75%
    05:00 +26°C° 0 mm 1 m/S 752 mmHg 74%
    06:00 +26°C° 0 mm 1 m/S 752 mmHg 72%
    07:00 +27°C° 0 mm 1 m/S 752 mmHg 70%
    08:00 +29°C° 0 mm 2 m/S 752 mmHg 63%
    09:00 +31°C° 0 mm 2 m/S 752 mmHg 56%
    10:00 +34°C° 0 mm 2 m/S 752 mmHg 48%
    11:00 +36°C° 0 mm 2 m/S 752 mmHg 43%
    12:00 +37°C° 0 mm 3 m/S 751 mmHg 38%
    13:00 +38°C° 0 mm 3 m/S 751 mmHg 33%
    14:00 +38°C° 0 mm 3 m/S 751 mmHg 33%
    15:00 +38°C° 0 mm 4 m/S 750 mmHg 33%
    16:00 +38°C° 0 mm 4 m/S 750 mmHg 33%
    17:00 +37°C° 0 mm 3 m/S 750 mmHg 39%
    18:00 +35°C° 0 mm 3 m/S 750 mmHg 46%
    19:00 +32°C° 0 mm 2 m/S 750 mmHg 52%
    20:00 +31°C° 0 mm 2 m/S 750 mmHg 56%
    21:00 +29°C° 0 mm 2 m/S 750 mmHg 60%
    22:00 +27°C° 0 mm 1 m/S 750 mmHg 64%
    23:00 +27°C° 0 mm 1 m/S 750 mmHg 65%

    übermorgen, 26 Juli, Freitag

    Zeit Temperatur Niederschläge Wind Luftdruck Luftfeuchtigkeit
    00:00 +26°C° 0 mm 2 m/S 750 mmHg 66%
    01:00 +26°C° 0 mm 2 m/S 750 mmHg 67%
    02:00 +25°C° 0 mm 2 m/S 750 mmHg 68%
    03:00 +25°C° 0 mm 2 m/S 749 mmHg 69%
    04:00 +25°C° 0 mm 2 m/S 749 mmHg 70%
    05:00 +25°C° 0 mm 2 m/S 749 mmHg 68%
    06:00 +26°C° 0 mm 2 m/S 749 mmHg 66%
    07:00 +27°C° 0 mm 2 m/S 749 mmHg 64%
    08:00 +29°C° 0 mm 2 m/S 749 mmHg 58%
    09:00 +31°C° 0 mm 2 m/S 749 mmHg 51%
    10:00 +34°C° 0 mm 3 m/S 749 mmHg 44%
    11:00 +35°C° 0 mm 3 m/S 748 mmHg 40%
    12:00 +36°C° 0 mm 3 m/S 748 mmHg 36%
    13:00 +37°C° 0 mm 3 m/S 747 mmHg 32%
    14:00 +37°C° 0 mm 3 m/S 747 mmHg 33%
    15:00 +37°C° 0 mm 3 m/S 747 mmHg 34%
    16:00 +37°C° 0 mm 3 m/S 746 mmHg 35%
    17:00 +35°C° 0 mm 3 m/S 746 mmHg 41%
    18:00 +34°C° 0 mm 3 m/S 746 mmHg 46%
    19:00 +31°C° 0 mm 2 m/S 746 mmHg 52%
    20:00 +30°C° 0 mm 2 m/S 745 mmHg 54%
    21:00 +28°C° 0 mm 2 m/S 745 mmHg 56%
    22:00 +27°C° 0 mm 2 m/S 745 mmHg 58%
    23:00 +26°C° 0 mm 2 m/S 745 mmHg 60%

    27 Juli, Samstag

    Zeit Temperatur Niederschläge Wind Luftdruck Luftfeuchtigkeit
    00:00 +25°C° 0 mm 2 m/S 745 mmHg 62%
    01:00 +25°C° 0 mm 2 m/S 745 mmHg 63%
    02:00 +24°C° 0 mm 2 m/S 744 mmHg 65%
    03:00 +24°C° 0 mm 2 m/S 744 mmHg 67%
    04:00 +23°C° 0 mm 1 m/S 744 mmHg 69%
    05:00 +23°C° 0 mm 1 m/S 744 mmHg 69%
    06:00 +24°C° 0 mm 1 m/S 744 mmHg 69%
    07:00 +24°C° 0 mm 1 m/S 744 mmHg 69%
    08:00 +26°C° 0 mm 1 m/S 744 mmHg 63%
    09:00 +28°C° 0 mm 2 m/S 744 mmHg 58%
    10:00 +30°C° 0 mm 2 m/S 744 mmHg 52%
    11:00 +31°C° 0 mm 2 m/S 743 mmHg 48%
    12:00 +32°C° 0 mm 2 m/S 743 mmHg 44%
    13:00 +34°C° 0 mm 3 m/S 742 mmHg 41%
    14:00 +34°C° 0 mm 3 m/S 742 mmHg 42%
    15:00 +34°C° 0 mm 3 m/S 742 mmHg 43%
    16:00 +33°C° 0 mm 4 m/S 741 mmHg 44%
    17:00 +31°C° 0.1 mm 3 m/S 741 mmHg 48%
    18:00 +30°C° 0.1 mm 3 m/S 741 mmHg 53%
    19:00 +29°C° 0.1 mm 3 m/S 741 mmHg 57%
    20:00 +27°C° 0.4 mm 2 m/S 742 mmHg 63%
    21:00 +25°C° 0.4 mm 1 m/S 742 mmHg 69%
    22:00 +24°C° 0.4 mm 1 m/S 742 mmHg 75%
    23:00 +23°C° 0.2 mm 1 m/S 742 mmHg 78%

    28 Juli, Sonntag

    Zeit Temperatur Niederschläge Wind Luftdruck Luftfeuchtigkeit
    00:00 +21°C° 0.2 mm 2 m/S 742 mmHg 82%
    01:00 +21°C° 0.2 mm 2 m/S 742 mmHg 85%
    02:00 +20°C° 0.1 mm 2 m/S 742 mmHg 87%
    03:00 +20°C° 0.1 mm 2 m/S 743 mmHg 89%
    04:00 +19°C° 0.1 mm 2 m/S 743 mmHg 92%
    05:00 +20°C° 0.2 mm 2 m/S 743 mmHg 90%
    06:00 +20°C° 0.2 mm 2 m/S 743 mmHg 89%
    07:00 +20°C° 0.2 mm 2 m/S 743 mmHg 88%
    08:00 +21°C° 0.1 mm 2 m/S 744 mmHg 84%
    09:00 +23°C° 0.1 mm 2 m/S 744 mmHg 79%
    10:00 +24°C° 0.1 mm 2 m/S 745 mmHg 75%
    11:00 +24°C° 0.1 mm 3 m/S 745 mmHg 73%
    12:00 +25°C° 0.1 mm 3 m/S 745 mmHg 72%
    13:00 +25°C° 0.1 mm 4 m/S 745 mmHg 70%
    14:00 +25°C° 0.1 mm 4 m/S 745 mmHg 69%
    15:00 +25°C° 0.1 mm 4 m/S 746 mmHg 69%
    16:00 +25°C° 0.1 mm 4 m/S 746 mmHg 68%
    17:00 +23°C° 0.1 mm 4 m/S 746 mmHg 70%
    18:00 +22°C° 0.1 mm 4 m/S 746 mmHg 73%
    19:00 +21°C° 0.1 mm 4 m/S 747 mmHg 76%
    20:00 +20°C° 0 mm 4 m/S 747 mmHg 79%
    21:00 +19°C° 0 mm 4 m/S 748 mmHg 82%
    22:00 +18°C° 0 mm 3 m/S 748 mmHg 86%
    23:00 +18°C° 0 mm 3 m/S 748 mmHg 86%

    29 Juli, Montag

    Zeit Temperatur Niederschläge Wind Luftdruck Luftfeuchtigkeit
    00:00 +18°C° 0 mm 3 m/S 749 mmHg 86%
    01:00 +17°C° 0 mm 3 m/S 749 mmHg 86%
    02:00 +17°C° 0 mm 2 m/S 749 mmHg 88%
    03:00 +17°C° 0 mm 2 m/S 749 mmHg 89%
    04:00 +17°C° 0 mm 2 m/S 749 mmHg 91%
    05:00 +17°C° 0 mm 2 m/S 749 mmHg 88%
    06:00 +18°C° 0 mm 2 m/S 750 mmHg 85%
    07:00 +20°C° 0 mm 1 m/S 750 mmHg 82%
    08:00 +21°C° 0 mm 1 m/S 750 mmHg 77%
    09:00 +23°C° 0 mm 1 m/S 750 mmHg 73%
    10:00 +23°C° 0 mm 0 m/S 750 mmHg 68%
    11:00 +26°C° 0 mm 1 m/S 750 mmHg 63%
    12:00 +27°C° 0 mm 1 m/S 750 mmHg 58%
    13:00 +29°C° 0 mm 2 m/S 750 mmHg 53%
    14:00 +29°C° 0 mm 2 m/S 750 mmHg 51%
    15:00 +30°C° 0 mm 2 m/S 750 mmHg 50%
    16:00 +30°C° 0 mm 2 m/S 750 mmHg 49%
    17:00 +29°C° 0 mm 1 m/S 749 mmHg 53%
    18:00 +29°C° 0 mm 1 m/S 749 mmHg 57%
    19:00 +26°C° 0 mm 0 m/S 749 mmHg 62%
    20:00 +25°C° 0 mm 0 m/S 750 mmHg 66%
    21:00 +23°C° 0 mm 0 m/S 750 mmHg 69%
    22:00 +22°C° 0 mm 0 m/S 750 mmHg 73%
    23:00 +21°C° 0 mm 0 m/S 750 mmHg 74%
    Mehr zeigen